Find Starlink 36175

NORAD ID: 67012 Int'l Des: 2025-293 Owner: SPXS Country: US Constellation: starlink operational
LEOCIRCULAR

当前视图

正在加载3D地球...

关于 Starlink 36175

正在加载描述...

即将过境

Passes for default location (London). Set your location on the main map for personalized predictions.

高度历史

Loading altitude history...

两行轨道根数

1 67012U 25293K 26146.59967210 .00001338 00000-0 11987-3 0 9999
2 67012 70.0008 258.1878 0003428 273.2673 86.8094 14.98335958 26557
Epoch: May 26, 2026 • Age: 5 hours

当前状态

高度 574.3 km
速度 7.57 km/s
星下点 14.66°N, 89.72°E
发射日期 Dec 10, 2025
运行时间 0.4 years
类型 internet

技术详情

分类 Payload
质量 575.00 kg
干质量 530.00 kg
总质量 575.00 kg
长度 0.30 m
直径 4.10 m
跨度 29.00 m
形状 Box + pan
制造商 SPXS
平台类型 Starlink V2MO
阶段状态 In Orbit
所有者/国家 SPXS/US

Most Searched